Barnwell, SC

4:20 AM EST on November 13, 2019 (GMT -0500)
Barnwell County

Weather History for KBNL - September, 2019

Change the Weather History Date:

Friday, September 27, 2019

  Actual Average (KOGB) Record (KOGB)
Temperature  
Mean Temperature 82 °F 72 °F  
Max Temperature 93 °F 83 °F 97 °F (1986)
Min Temperature 71 °F 61 °F 45 °F (1981)
Cooling Degree Days 17 7  
Month to date cooling degree days 281  
Year to date cooling degree days 1974  
Growing Degree Days 32 (Base 50)    
Moisture  
Dew Point 72 °F    
Average Humidity 77    
Maximum Humidity 100    
Minimum Humidity 44    
Precipitation  
Precipitation 0.00 in 0.14 in 3.60 in (1953)
Month to date precipitation 3.38  
Year to date precipitation 36.69  
Sea Level Pressure  
Sea Level Pressure 29.98 in    
Wind  
Wind Speed 2 mph (SE)    
Max Wind Speed 15 mph    
Max Gust Speed 21 mph    
Visibility 9 miles    
Events Fog , Thunderstorm    
T = Trace of Precipitation, MM = Missing Value Source: NWS Daily Summary

Daily Weather History Graph

Daily Weather History Graph

Search for Another Location

Airport or City:

Astronomy

Sep. 27, 2019 Rise Set
Actual Time 7:16 AM EDT 7:15 PM EDT
Civil Twilight 6:52 AM EDT 7:40 PM EDT
Nautical Twilight 6:23 AM EDT 8:09 PM EDT
Astronomical Twilight 5:54 AM EDT 8:38 PM EDT
Moon 5:45 AM EDT (9/27) 6:59 PM EDT (9/27)
Length of Visible Light 12h 48m
Length of Day
11h 58m
Waning Crescent, 2% of the Moon is Illuminated
Sep 27
Waning Crescent
Sep 28
New
Oct 5
First Quarter
Oct 13
Full
Oct 21
Last Quarter

Hourly Weather History & Observations

Time (EDT) Temp. Heat Index Dew Point Humidity Pressure Visibility Wind Dir Wind Speed Gust Speed Precip Events Conditions
12:15 AM 78.8 °F - 73.4 °F 83% 29.92 in 10.0 mi Calm Calm - N/A   Partly Cloudy
12:35 AM 78.8 °F - 73.4 °F 83% 29.93 in 10.0 mi Calm Calm - N/A   Scattered Clouds
12:55 AM 77.0 °F - 73.4 °F 89% 29.92 in 10.0 mi Calm Calm - N/A   Partly Cloudy
1:15 AM 77.0 °F - 73.4 °F 89% 29.92 in 10.0 mi Calm Calm - N/A   Scattered Clouds
1:35 AM 77.0 °F - 73.4 °F 89% 29.92 in 10.0 mi SE 3.5 mph - N/A   Mostly Cloudy
2:15 AM 77.0 °F - 73.4 °F 89% 29.92 in 10.0 mi Calm Calm - N/A   Overcast
2:35 AM 75.2 °F - 73.4 °F 94% 29.92 in 10.0 mi Calm Calm - N/A   Mostly Cloudy
2:55 AM 75.2 °F - 73.4 °F 94% 29.92 in 10.0 mi Calm Calm - N/A   Partly Cloudy
3:15 AM 75.2 °F - 71.6 °F 89% 29.91 in 10.0 mi Calm Calm - N/A   Clear
3:35 AM 73.4 °F - 71.6 °F 94% 29.91 in 10.0 mi Calm Calm - N/A   Clear
3:55 AM 73.4 °F - 71.6 °F 94% 29.91 in 10.0 mi Calm Calm - N/A   Clear
4:15 AM 73.4 °F - 71.6 °F 94% 29.91 in 10.0 mi Calm Calm - N/A   Partly Cloudy
4:35 AM 73.4 °F - 71.6 °F 94% 29.92 in 10.0 mi Calm Calm - N/A   Clear
5:15 AM 73.4 °F - 71.6 °F 94% 29.93 in 10.0 mi Calm Calm - N/A   Clear
5:35 AM 71.6 °F - 71.6 °F 100% 29.93 in 9.0 mi Calm Calm - N/A   Mostly Cloudy
5:55 AM 71.6 °F - 71.6 °F 100% 29.94 in 6.0 mi Calm Calm - N/A   Overcast
6:15 AM 73.4 °F - 71.6 °F 94% 29.95 in 4.0 mi Calm Calm - N/A   Overcast
6:55 AM 73.4 °F - 73.4 °F 100% 29.96 in 0.2 mi Calm Calm - N/A Fog Fog
7:15 AM 73.4 °F - 73.4 °F 100% 29.97 in 0.2 mi SE 4.6 mph - N/A Fog Fog
7:35 AM 73.4 °F - 73.4 °F 100% 29.98 in 0.2 mi SE 4.6 mph - N/A Fog Fog
7:55 AM 73.4 °F - 73.4 °F 100% 29.98 in 0.5 mi SE 4.6 mph - N/A Fog Fog
8:15 AM 75.2 °F - 73.4 °F 94% 29.99 in 1.5 mi SE 4.6 mph - N/A   Overcast
8:35 AM 75.2 °F - 75.2 °F 100% 29.99 in 3.0 mi SSE 4.6 mph - N/A   Overcast
8:55 AM 75.2 °F - 75.2 °F 100% 30.00 in 6.0 mi SSE 4.6 mph - N/A   Overcast
9:15 AM 77.0 °F - 75.2 °F 94% 30.00 in 7.0 mi SSE 5.8 mph - N/A   Overcast
9:35 AM 78.8 °F - 75.2 °F 89% 30.01 in 10.0 mi SE 6.9 mph - N/A   Mostly Cloudy
9:55 AM 80.6 °F 86.2 °F 75.2 °F 84% 30.01 in 10.0 mi Calm Calm - N/A   Partly Cloudy
10:15 AM 82.4 °F 89.5 °F 75.2 °F 79% 30.01 in 10.0 mi Calm Calm - N/A   Clear
10:35 AM 84.2 °F 92.3 °F 75.2 °F 74% 30.02 in 10.0 mi Calm Calm - N/A   Clear
10:55 AM 86.0 °F 93.4 °F 73.4 °F 66% 30.02 in 10.0 mi Variable 4.6 mph - N/A   Clear
11:15 AM 87.8 °F 95.6 °F 73.4 °F 62% 30.02 in 10.0 mi Calm Calm - N/A   Clear
12:15 PM 91.4 °F 98.4 °F 71.6 °F 52% 30.02 in 10.0 mi Calm Calm - N/A   Partly Cloudy
12:35 PM 91.4 °F 98.4 °F 71.6 °F 52% 30.01 in 10.0 mi ESE 4.6 mph - N/A   Partly Cloudy
12:55 PM 91.4 °F 98.4 °F 71.6 °F 52% 30.01 in 9.0 mi Calm Calm - N/A   Partly Cloudy
1:15 PM 93.2 °F 100.5 °F 71.6 °F 49% 30.00 in 10.0 mi Calm Calm - N/A   Scattered Clouds
1:35 PM 93.2 °F 98.8 °F 69.8 °F 46% 29.99 in 10.0 mi Calm Calm - N/A   Scattered Clouds
1:55 PM 93.2 °F 98.8 °F 69.8 °F 46% 29.98 in 10.0 mi Calm Calm - N/A   Clear
2:15 PM 93.2 °F 97.7 °F 68.0 °F 44% 29.97 in 10.0 mi ESE 5.8 mph - N/A   Partly Cloudy
2:35 PM 89.6 °F 93.4 °F 68.0 °F 49% 29.96 in 10.0 mi South 11.5 mph - N/A Thunderstorm Clear
2:55 PM 89.6 °F 94.7 °F 69.8 °F 52% 29.96 in 10.0 mi SE 15.0 mph - N/A Thunderstorm Clear
3:15 PM 89.6 °F 94.7 °F 69.8 °F 52% 29.97 in 10.0 mi SE 9.2 mph - N/A Thunderstorm Thunderstorm
3:35 PM 86.0 °F 89.4 °F 68.0 °F 55% 29.98 in 10.0 mi ESE 13.8 mph - N/A Thunderstorm Clear
3:55 PM 82.4 °F 86.3 °F 69.8 °F 66% 29.99 in 10.0 mi ESE 12.7 mph 20.7 mph N/A Thunderstorm Clear
4:15 PM 82.4 °F 85.4 °F 68.0 °F 62% 29.99 in 10.0 mi NE 6.9 mph - N/A Thunderstorm Clear
4:35 PM 82.4 °F 86.3 °F 69.8 °F 66% 29.97 in 10.0 mi Calm Calm - N/A   Clear
4:55 PM 82.4 °F 85.4 °F 68.0 °F 62% 29.97 in 10.0 mi SSE 8.1 mph - N/A   Clear
5:15 PM 84.2 °F 88.4 °F 69.8 °F 62% 29.97 in 10.0 mi SSE 8.1 mph - N/A   Clear
5:35 PM 84.2 °F 88.4 °F 69.8 °F 62% 29.97 in 10.0 mi East 4.6 mph - N/A   Clear
5:55 PM 84.2 °F 88.4 °F 69.8 °F 62% 29.98 in 10.0 mi ESE 5.8 mph - N/A   Clear
6:15 PM 86.0 °F 90.4 °F 69.8 °F 58% 29.99 in 10.0 mi SE 8.1 mph - N/A   Clear
6:35 PM 86.0 °F 91.8 °F 71.6 °F 62% 29.99 in 10.0 mi SE 10.4 mph - N/A   Clear
6:55 PM 84.2 °F 89.6 °F 71.6 °F 66% 29.99 in 10.0 mi SE 8.1 mph - N/A   Clear
7:15 PM 82.4 °F 87.2 °F 71.6 °F 70% 30.00 in 10.0 mi SE 5.8 mph - N/A   Clear
7:35 PM 82.4 °F 87.2 °F 71.6 °F 70% 30.01 in 10.0 mi SE 4.6 mph - N/A   Clear
8:15 PM 80.6 °F 84.6 °F 71.6 °F 74% 30.01 in 10.0 mi ESE 6.9 mph - N/A   Clear
8:35 PM 80.6 °F 84.6 °F 71.6 °F 74% 30.02 in 10.0 mi ESE 5.8 mph - N/A   Partly Cloudy
8:55 PM 80.6 °F 84.6 °F 71.6 °F 74% 30.02 in 10.0 mi SSE 6.9 mph - N/A   Partly Cloudy
9:15 PM 78.8 °F - 71.6 °F 78% 30.04 in 10.0 mi SE 5.8 mph - N/A   Partly Cloudy
9:35 PM 78.8 °F - 71.6 °F 78% 30.05 in 10.0 mi SE 4.6 mph - N/A   Scattered Clouds
9:55 PM 78.8 °F - 71.6 °F 78% 30.05 in 10.0 mi SE 6.9 mph - N/A   Scattered Clouds
10:15 PM 77.0 °F - 71.6 °F 83% 30.05 in 10.0 mi SE 4.6 mph - N/A   Scattered Clouds
10:35 PM 77.0 °F - 71.6 °F 83% 30.06 in 10.0 mi SE 5.8 mph - N/A   Mostly Cloudy
11:15 PM 75.2 °F - 71.6 °F 89% 30.06 in 10.0 mi SE 4.6 mph - N/A   Scattered Clouds
11:35 PM 75.2 °F - 71.6 °F 89% 30.07 in 10.0 mi Calm Calm - N/A   Scattered Clouds
11:55 PM 75.2 °F - 71.6 °F 89% 30.07 in 10.0 mi Calm Calm - N/A   Mostly Cloudy